FW4174 Weather Reports


time (UTC)temp
C
wind
direction
speed
KPH
gust
KPH
rain 1hr
cm
rain 24hr
cm
rain mn
cm
humidity
%
barometer
mb
20260504151047 16 319 11.3 20.9 0.00 0.00 0.00 43 1000.3
20260504150547 16 277 6.4 14.5 0.00 0.00 0.00 44 1000.4
20260504141049 15 289 6.4 12.9 0.00 0.00 0.00 48 1000.1
20260504140546 15 286 4.8 12.9 0.00 0.00 0.00 47 1000.0
20260504140103 15 304 6.4 14.5 0.00 0.00 0.00 48 1000.0
20260504130544 15 302 4.8 11.3 0.00 0.00 0.00 55 999.4
20260504110547 13 236 24.1 30.6 0.00 0.00 0.00 52 997.0
20260504100545 13 202 19.3 27.4 0.00 0.00 0.00 47 997.4
20260504081555 11 263 9.7 14.5 0.00 0.00 0.00 58 999.2
20260504081044 10 240 8.0 12.9 0.00 0.00 0.00 59 999.1
20260504080545 10 306 6.4 11.3 0.00 0.00 0.00 59 999.2
20260504060104 13 265 8.0 14.5 0.00 0.00 0.00 48 1001.8
20260504050545 12 249 6.4 11.3 0.00 0.00 0.00 47 1002.6
20260504045544 12 273 4.8 9.7 0.00 0.00 0.00 46 1002.7
20260504045046 13 259 4.8 9.7 0.00 0.00 0.00 45 1002.8
20260504044552 13 236 4.8 11.3 0.00 0.00 0.00 44 1002.9
20260504044046 13 259 4.8 11.3 0.00 0.00 0.00 44 1003.0
20260504043545 13 255 4.8 12.9 0.00 0.00 0.00 43 1003.0
20260504043057 13 243 6.4 12.9 0.00 0.00 0.00 43 1003.1
20260504042548 13 247 6.4 11.3 0.00 0.00 0.00 43 1003.2
20260504042044 13 235 6.4 11.3 0.00 0.00 0.00 43 1003.2
20260504041549 13 232 6.4 11.3 0.00 0.00 0.00 43 1003.3
20260504041044 13 215 6.4 11.3 0.00 0.00 0.00 43 1003.3
20260504040547 13 233 6.4 11.3 0.00 0.00 0.00 43 1003.5
20260504040055 13 234 6.4 11.3 0.00 0.00 0.00 43 1003.5
20260504035545 13 239 6.4 11.3 0.00 0.00 0.00 43 1003.7
20260504035044 13 242 6.4 9.7 0.00 0.00 0.00 43 1003.7
20260504034606 13 252 4.8 11.3 0.00 0.00 0.00 43 1003.8
20260504034046 13 238 4.8 11.3 0.00 0.00 0.00 43 1003.9
20260504033544 13 240 4.8 11.3 0.00 0.00 0.00 43 1004.0
20260504033059 13 241 4.8 9.7 0.00 0.00 0.00 43 1004.0
20260504032545 13 244 3.2 6.4 0.00 0.00 0.00 43 1004.2
20260504032045 13 244 4.8 9.7 0.00 0.00 0.00 42 1004.3
20260504031605 13 240 4.8 9.7 0.00 0.00 0.00 40 1004.2
20260504031045 14 243 4.8 8.0 0.00 0.00 0.00 39 1004.3
20260504030544 14 240 4.8 8.0 0.00 0.00 0.00 39 1004.4
20260504030113 15 240 4.8 12.9 0.00 0.00 0.00 38 1004.5
20260504025547 15 241 6.4 12.9 0.00 0.00 0.00 37 1004.5
20260504025047 15 234 9.7 12.9 0.00 0.00 0.00 36 1004.5
20260504024551 15 238 9.7 12.9 0.00 0.00 0.00 36 1004.5
20260504024047 15 251 6.4 11.3 0.00 0.00 0.00 36 1004.6
20260504023546 15 244 4.8 11.3 0.00 0.00 0.00 37 1004.6
20260504023053 15 240 4.8 12.9 0.00 0.00 0.00 38 1004.6
20260504022545 15 245 9.7 12.9 0.00 0.00 0.00 37 1004.6
20260504022045 16 250 4.8 11.3 0.00 0.00 0.00 36 1004.6
20260504021550 16 226 4.8 11.3 0.00 0.00 0.00 35 1004.6
20260504021045 17 232 3.2 6.4 0.00 0.00 0.00 33 1004.7
20260504020545 17 247 0.0 4.8 0.00 0.00 0.00 34 1004.7
20260504020051 17 243 3.2 4.8 0.00 0.00 0.00 34 1004.8
20260504015545 17 235 1.6 4.8 0.00 0.00 0.00 34 1004.8
20260504015045 17 0 1.6 4.8 0.00 0.00 0.00 34 1004.7
20260504014556 17 238 1.6 4.8 0.00 0.00 0.00 35 1004.7
20260504014045 17 0 0.0 4.8 0.00 0.00 0.00 35 1004.8
20260504013547 17 0 0.0 4.8 0.00 0.00 0.00 35 1004.8
20260504013050 18 242 1.6 4.8 0.00 0.00 0.00 35 1004.7
20260504012545 17 252 0.0 3.2 0.00 0.00 0.00 35 1004.7
20260504012047 17 0 0.0 1.6 0.00 0.00 0.00 37 1004.6
20260504011553 18 0 0.0 6.4 0.00 0.00 0.00 36 1004.6
20260504011044 18 0 0.0 6.4 0.00 0.00 0.00 35 1004.6
20260504010545 18 246 0.0 6.4 0.00 0.00 0.00 34 1004.6
20260504010054 18 0 0.0 0.0 0.00 0.00 0.00 34 1004.6
20260504005545 19 0 0.0 1.6 0.00 0.00 0.00 33 1004.6
20260504005047 19 0 0.0 1.6 0.00 0.00 0.00 33 1004.6
20260504004553 19 0 0.0 3.2 0.00 0.00 0.00 32 1004.8
20260504004046 20 0 0.0 3.2 0.00 0.00 0.00 31 1004.7
20260504003545 20 0 0.0 8.0 0.00 0.00 0.00 30 1004.8
20260504003051 20 0 0.0 8.0 0.00 0.00 0.00 30 1004.9
20260504002546 20 266 0.0 6.4 0.00 0.00 0.00 30 1004.9
20260504002047 20 240 1.6 6.4 0.00 0.00 0.00 29 1005.0
20260504001556 20 0 0.0 4.8 0.00 0.00 0.00 30 1005.0
20260504001044 21 0 0.0 4.8 0.00 0.00 0.00 30 1005.1
20260504000547 21 271 1.6 4.8 0.00 0.00 0.00 30 1005.1
20260504000135 21 183 1.6 4.8 0.00 0.00 0.00 30 1005.1
20260503235544 21 323 1.6 4.8 0.00 0.00 0.00 29 1005.2
20260503235044 21 0 0.0 8.0 0.00 0.00 0.00 28 1005.2
20260503234556 21 0 1.6 8.0 0.00 0.00 0.00 30 1005.2
20260503234045 21 295 3.2 12.9 0.00 0.00 0.00 28 1005.2
20260503233546 21 275 3.2 12.9 0.00 0.00 0.00 29 1005.3
20260503233049 21 0 1.6 14.5 0.00 0.00 0.00 28 1005.4
20260503232546 21 214 6.4 14.5 0.00 0.00 0.00 26 1005.4
20260503232044 22 238 1.6 8.0 0.00 0.00 0.00 26 1005.5
20260503231555 22 271 1.6 8.0 0.00 0.00 0.00 27 1005.5
20260503231048 22 336 1.6 8.0 0.00 0.00 0.00 26 1005.5
20260503230544 22 286 3.2 8.0 0.00 0.00 0.00 28 1005.5
20260503230057 22 296 1.6 12.9 0.00 0.00 0.00 26 1005.6
20260503225545 22 230 1.6 12.9 0.00 0.00 0.00 27 1005.6
20260503225045 22 235 1.6 11.3 0.00 0.00 0.00 26 1005.6
20260503224556 22 252 4.8 16.1 0.00 0.00 0.00 25 1005.7
20260503224047 22 298 3.2 16.1 0.00 0.00 0.00 27 1005.8
20260503223548 22 236 8.0 16.1 0.00 0.00 0.00 24 1005.8
20260503223054 22 259 1.6 11.3 0.00 0.00 0.00 27 1005.8
20260503222543 22 0 3.2 11.3 0.00 0.00 0.00 27 1005.9
20260503222043 22 265 3.2 11.3 0.00 0.00 0.00 26 1005.9
20260503221551 22 317 4.8 11.3 0.00 0.00 0.00 28 1005.8
20260503221044 22 307 4.8 19.3 0.00 0.00 0.00 27 1005.9
20260503220545 22 252 3.2 19.3 0.00 0.00 0.00 26 1005.8
20260503220057 22 272 3.2 16.1 0.00 0.00 0.00 27 1005.9
20260503215545 22 150 3.2 17.7 0.00 0.00 0.00 28 1005.9
20260503215044 22 307 4.8 17.7 0.00 0.00 0.00 27 1006.1
20260503214553 22 316 3.2 11.3 0.00 0.00 0.00 28 1006.1
20260503214045 22 266 4.8 11.3 0.00 0.00 0.00 27 1006.2
20260503213544 22 241 3.2 14.5 0.00 0.00 0.00 26 1006.1
20260503213053 22 309 4.8 14.5 0.00 0.00 0.00 27 1006.3
20260503212544 22 312 4.8 14.5 0.00 0.00 0.00 30 1006.4
20260503212043 22 262 3.2 14.5 0.00 0.00 0.00 29 1006.4
20260503211553 22 302 4.8 14.5 0.00 0.00 0.00 31 1006.4
20260503211045 22 280 4.8 14.5 0.00 0.00 0.00 29 1006.4
20260503210544 22 295 4.8 14.5 0.00 0.00 0.00 26 1006.5
20260503210052 22 291 4.8 16.1 0.00 0.00 0.00 29 1006.5
20260503205544 22 253 4.8 16.1 0.00 0.00 0.00 29 1006.6
20260503205046 22 335 6.4 14.5 0.00 0.00 0.00 28 1006.7
20260503204555 22 254 4.8 14.5 0.00 0.00 0.00 29 1006.7
20260503204043 22 279 4.8 14.5 0.00 0.00 0.00 30 1006.7
20260503203543 21 321 4.8 16.1 0.00 0.00 0.00 30 1006.8
20260503203101 22 315 4.8 16.1 0.00 0.00 0.00 33 1006.9
20260503202546 22 286 4.8 17.7 0.00 0.00 0.00 29 1007.0
20260503202046 22 348 6.4 17.7 0.00 0.00 0.00 30 1007.1
20260503201559 22 266 4.8 17.7 0.00 0.00 0.00 30 1007.1
20260503201047 22 305 4.8 19.3 0.00 0.00 0.00 31 1007.2
20260503200543 22 271 4.8 19.3 0.00 0.00 0.00 32 1007.2
20260503200051 22 317 8.0 17.7 0.00 0.00 0.00 29 1007.3
20260503195545 22 300 4.8 12.9 0.00 0.00 0.00 31 1007.4
20260503195047 22 347 3.2 17.7 0.00 0.00 0.00 31 1007.5
20260503194554 22 287 6.4 24.1 0.00 0.00 0.00 32 1007.4
20260503194044 21 319 11.3 24.1 0.00 0.00 0.00 31 1007.6
20260503193545 21 260 4.8 17.7 0.00 0.00 0.00 31 1007.5
20260503193055 22 313 8.0 19.3 0.00 0.00 0.00 31 1007.6
20260503192543 21 325 6.4 20.9 0.00 0.00 0.00 34 1007.8
20260503192043 21 246 8.0 25.7 0.00 0.00 0.00 30 1007.8
20260503191551 21 352 8.0 25.7 0.00 0.00 0.00 33 1007.8
20260503191044 22 323 9.7 25.7 0.00 0.00 0.00 32 1007.9
20260503190544 21 5 6.4 16.1 0.00 0.00 0.00 33 1007.8
20260503190056 21 302 8.0 16.1 0.00 0.00 0.00 33 1007.9
20260503185545 21 317 6.4 16.1 0.00 0.00 0.00 33 1008.0
20260503185047 21 283 9.7 20.9 0.00 0.00 0.00 32 1008.0
20260503184611 21 334 4.8 20.9 0.00 0.00 0.00 32 1008.1
20260503184048 21 283 12.9 20.9 0.00 0.00 0.00 33 1008.1
20260503183546 21 321 8.0 19.3 0.00 0.00 0.00 35 1008.1
20260503183100 21 322 8.0 16.1 0.00 0.00 0.00 34 1008.1
20260503182548 21 285 8.0 17.7 0.00 0.00 0.00 33 1008.2
20260503182044 21 322 6.4 17.7 0.00 0.00 0.00 34 1008.2
20260503181556 21 340 8.0 17.7 0.00 0.00 0.00 33 1008.3
20260503181048 21 351 8.0 19.3 0.00 0.00 0.00 34 1008.3
20260503180544 21 276 6.4 19.3 0.00 0.00 0.00 35 1008.5
20260503180056 21 332 8.0 19.3 0.00 0.00 0.00 34 1008.5
20260503175546 21 298 8.0 17.7 0.00 0.00 0.00 34 1008.5
20260503175045 20 295 8.0 17.7 0.00 0.00 0.00 34 1008.7
20260503174554 20 252 9.7 17.7 0.00 0.00 0.00 35 1008.6
20260503174046 21 303 6.4 17.7 0.00 0.00 0.00 36 1008.7
20260503173546 20 291 8.0 22.5 0.00 0.00 0.00 35 1008.6
20260503173052 20 292 6.4 22.5 0.00 0.00 0.00 36 1008.7
20260503172545 20 336 9.7 22.5 0.00 0.00 0.00 35 1008.8
20260503172045 20 290 6.4 27.4 0.00 0.00 0.00 35 1008.6
20260503171610 20 350 17.7 27.4 0.00 0.00 0.00 34 1008.8
20260503171045 20 315 9.7 20.9 0.00 0.00 0.00 35 1008.7
20260503170547 20 321 11.3 24.1 0.00 0.00 0.00 37 1008.8
20260503170103 20 308 9.7 24.1 0.00 0.00 0.00 37 1008.8